PTNIC SBFI-SBFL

Flight info

Callsign PTNIC
Flight time N/A
Altitude 12000
Route KAMIL DCT NELUP UZ83 MOTGI/N0218F070 DCT ESNOG DCT VAPAP
Aircraft AEST/L-SDFGRY/S

Departure

Time 2026-04-28 00:21
Airport Cataratas International Airport (SBFI)

Arrival

Time N/A
Airport Hercílio Luz International Airport (SBFL)
Time Latitude Longitude Altitude Speed Heading
2026-04-27 23:39 -25.59876 -54.48587 793 ft 0 kts 310°
2026-04-28 00:14 -25.59875 -54.48587 793 ft 2 kts 310°
2026-04-28 00:15 -25.59839 -54.48587 793 ft 10 kts
2026-04-28 00:15 -25.59769 -54.48663 793 ft 18 kts 309°
2026-04-28 00:15 -25.59709 -54.48721 793 ft 13 kts 25°
2026-04-28 00:15 -25.59694 -54.48711 793 ft 0 kts 40°
2026-04-28 00:19 -25.59659 -54.48678 793 ft 13 kts 31°
2026-04-28 00:19 -25.59565 -54.48754 793 ft 22 kts 311°
2026-04-28 00:19 -25.59455 -54.48897 796 ft 26 kts 310°
2026-04-28 00:19 -25.59386 -54.49026 795 ft 16 kts 293°
2026-04-28 00:20 -25.59347 -54.49042 794 ft 11 kts 105°
2026-04-28 00:20 -25.59526 -54.48808 794 ft 76 kts 131°
2026-04-28 00:20 -25.59950 -54.48266 859 ft 100 kts 133°
2026-04-28 00:20 -25.60440 -54.47658 996 ft 113 kts 135°
2026-04-28 00:21 -25.60980 -54.46977 1348 ft 123 kts 134°
2026-04-28 00:21 -25.61575 -54.46227 1675 ft 133 kts 133°
2026-04-28 00:21 -25.62187 -54.45473 2040 ft 135 kts 142°
2026-04-28 00:21 -25.62799 -54.44563 2127 ft 155 kts 127°
2026-04-28 00:22 -25.63518 -54.43616 2299 ft 167 kts 136°
2026-04-28 00:22 -25.64307 -54.42647 2491 ft 170 kts 134°
2026-04-28 00:22 -25.65079 -54.41658 2700 ft 170 kts 133°
2026-04-28 00:22 -25.65856 -54.40664 2894 ft 171 kts 131°
2026-04-28 00:23 -25.66422 -54.39518 3060 ft 173 kts 105°
2026-04-28 00:23 -25.66608 -54.38202 3247 ft 173 kts 97°
2026-04-28 00:23 -25.66699 -54.36872 3415 ft 173 kts 94°
2026-04-28 00:23 -25.66732 -54.35535 3591 ft 174 kts 91°
2026-04-28 00:24 -25.66721 -54.34199 3775 ft 174 kts 90°
2026-04-28 00:24 -25.66767 -54.32858 3945 ft 174 kts 102°
2026-04-28 00:24 -25.67200 -54.31620 4122 ft 173 kts 122°
2026-04-28 00:24 -25.67951 -54.30595 4281 ft 173 kts 130°
2026-04-28 00:25 -25.68658 -54.29521 4450 ft 173 kts 121°
2026-04-28 00:25 -25.69212 -54.28335 4606 ft 173 kts 114°
2026-04-28 00:25 -25.69627 -54.27084 4770 ft 173 kts 108°
2026-04-28 00:25 -25.69958 -54.25800 4927 ft 173 kts 105°
2026-04-28 00:26 -25.70247 -54.24501 5073 ft 173 kts 104°
2026-04-28 00:26 -25.70528 -54.23202 5214 ft 174 kts 104°
2026-04-28 00:26 -25.70809 -54.21888 5357 ft 177 kts 104°
2026-04-28 00:26 -25.71100 -54.20559 5499 ft 178 kts 105°
2026-04-28 00:27 -25.71415 -54.19233 5637 ft 178 kts 107°
2026-04-28 00:27 -25.71757 -54.17914 5772 ft 178 kts 108°
2026-04-28 00:27 -25.72127 -54.16604 5904 ft 178 kts 110°
2026-04-28 00:27 -25.72526 -54.15305 6039 ft 178 kts 111°
2026-04-28 00:28 -25.72942 -54.14014 6171 ft 177 kts 112°
2026-04-28 00:28 -25.73369 -54.12732 6304 ft 178 kts 112°
2026-04-28 00:28 -25.73809 -54.11450 6427 ft 178 kts 113°
2026-04-28 00:28 -25.74251 -54.10170 6544 ft 178 kts 113°
2026-04-28 00:29 -25.74693 -54.08889 6652 ft 178 kts 113°
2026-04-28 00:29 -25.75136 -54.07605 6760 ft 178 kts 113°
2026-04-28 00:29 -25.75574 -54.06317 6865 ft 179 kts 112°
2026-04-28 00:29 -25.76006 -54.05021 6964 ft 179 kts 112°
2026-04-28 00:30 -25.76431 -54.03724 7073 ft 179 kts 112°
2026-04-28 00:30 -25.76851 -54.02424 7168 ft 179 kts 111°
2026-04-28 00:30 -25.77269 -54.01117 7261 ft 180 kts 111°
2026-04-28 00:30 -25.77690 -53.99807 7357 ft 180 kts 111°
2026-04-28 00:31 -25.78116 -53.98498 7444 ft 181 kts 111°
2026-04-28 00:31 -25.78542 -53.97187 7546 ft 181 kts 111°
2026-04-28 00:31 -25.78965 -53.95874 7638 ft 181 kts 111°
2026-04-28 00:31 -25.79389 -53.94557 7728 ft 181 kts 111°
2026-04-28 00:32 -25.79805 -53.93265 7923 ft 174 kts 111°
2026-04-28 00:32 -25.80203 -53.92032 8106 ft 171 kts 111°
2026-04-28 00:32 -25.80604 -53.90791 8281 ft 171 kts 111°
2026-04-28 00:32 -25.81005 -53.89550 8438 ft 171 kts 111°
2026-04-28 00:33 -25.81406 -53.88307 8614 ft 171 kts 110°
2026-04-28 00:33 -25.81807 -53.87066 8777 ft 171 kts 111°
2026-04-28 00:33 -25.82206 -53.85824 8936 ft 171 kts 110°
2026-04-28 00:33 -25.82607 -53.84578 9086 ft 171 kts 110°
2026-04-28 00:34 -25.83008 -53.83334 9234 ft 171 kts 110°
2026-04-28 00:34 -25.83391 -53.82080 9384 ft 172 kts 107°
2026-04-28 00:34 -25.83830 -53.80855 9541 ft 171 kts 120°
2026-04-28 00:34 -25.84543 -53.79804 9688 ft 171 kts 137°
2026-04-28 00:35 -25.85483 -53.78999 9832 ft 170 kts 152°
2026-04-28 00:35 -25.86544 -53.78431 9967 ft 169 kts 161°
2026-04-28 00:35 -25.87646 -53.77978 10079 ft 168 kts 163°
2026-04-28 00:35 -25.88746 -53.77524 10192 ft 168 kts 162°
2026-04-28 00:36 -25.89836 -53.77052 10292 ft 168 kts 161°
2026-04-28 00:36 -25.90921 -53.76560 10398 ft 169 kts 161°
2026-04-28 00:36 -25.92002 -53.76052 10491 ft 169 kts 160°
2026-04-28 00:36 -25.93089 -53.75526 10535 ft 173 kts 160°
2026-04-28 00:37 -25.94195 -53.74980 10589 ft 175 kts 159°
2026-04-28 00:37 -25.95307 -53.74419 10652 ft 176 kts 159°
2026-04-28 00:37 -25.96423 -53.73845 10719 ft 177 kts 159°
2026-04-28 00:37 -25.97540 -53.73258 10783 ft 178 kts 158°
2026-04-28 00:38 -25.98657 -53.72663 10853 ft 178 kts 158°
2026-04-28 00:38 -25.99693 -53.71905 10903 ft 180 kts 144°
2026-04-28 00:38 -26.00695 -53.71071 10982 ft 180 kts 149°
2026-04-28 00:38 -26.01768 -53.70367 11066 ft 179 kts 156°
2026-04-28 00:39 -26.02885 -53.69772 11146 ft 178 kts 160°
2026-04-28 00:39 -26.04018 -53.69229 11206 ft 177 kts 162°
2026-04-28 00:39 -26.05160 -53.68711 11267 ft 177 kts 162°
2026-04-28 00:39 -26.06305 -53.68197 11325 ft 178 kts 162°
2026-04-28 00:40 -26.07449 -53.67675 11383 ft 178 kts 162°
2026-04-28 00:40 -26.08586 -53.67134 11436 ft 178 kts 161°
2026-04-28 00:40 -26.09700 -53.66578 11480 ft 173 kts 160°
2026-04-28 00:40 -26.10783 -53.66011 11472 ft 172 kts 159°
2026-04-28 00:41 -26.11856 -53.65429 11472 ft 172 kts 158°
2026-04-28 00:41 -26.12928 -53.64829 11471 ft 173 kts 157°
2026-04-28 00:41 -26.13999 -53.64209 11479 ft 175 kts 156°
2026-04-28 00:41 -26.15088 -53.63563 11479 ft 179 kts 156°
2026-04-28 00:42 -26.16191 -53.62903 11473 ft 181 kts 156°
2026-04-28 00:42 -26.17308 -53.62231 11474 ft 184 kts 156°
2026-04-28 00:42 -26.18449 -53.61549 11479 ft 188 kts 156°
2026-04-28 00:42 -26.19610 -53.60859 11480 ft 191 kts 156°
2026-04-28 00:43 -26.20788 -53.60157 11479 ft 192 kts 155°
2026-04-28 00:43 -26.21975 -53.59450 11480 ft 195 kts 156°
2026-04-28 00:43 -26.23176 -53.58740 11477 ft 197 kts 156°
2026-04-28 00:43 -26.24390 -53.58027 11473 ft 198 kts 156°
2026-04-28 00:44 -26.25608 -53.57314 11475 ft 198 kts 156°
2026-04-28 00:44 -26.26834 -53.56599 11486 ft 199 kts 156°
2026-04-28 00:44 -26.28063 -53.55896 11487 ft 199 kts 159°
2026-04-28 00:44 -26.29384 -53.55447 11477 ft 198 kts 171°
2026-04-28 00:45 -26.30708 -53.55027 11470 ft 198 kts 164°
2026-04-28 00:45 -26.31977 -53.54426 11479 ft 198 kts 157°
2026-04-28 00:45 -26.33185 -53.53681 11480 ft 200 kts 152°
2026-04-28 00:45 -26.33992 -53.53112 11461 ft 201 kts 150°
2026-04-28 00:46 -26.35134 -53.52203 11473 ft 202 kts 146°
2026-04-28 00:46 -26.36250 -53.51248 11480 ft 202 kts 146°
2026-04-28 00:46 -26.36984 -53.50643 11483 ft 202 kts 147°
2026-04-28 00:46 -26.38573 -53.49471 11483 ft 203 kts 152°
2026-04-28 00:47 -26.39385 -53.48959 11483 ft 202 kts 155°
2026-04-28 00:47 -26.40642 -53.48254 11483 ft 202 kts 158°
2026-04-28 00:47 -26.42328 -53.47381 11482 ft 202 kts 159°
2026-04-28 00:47 -26.43606 -53.46726 11481 ft 202 kts 159°
2026-04-28 00:48 -26.44874 -53.46056 11481 ft 202 kts 158°
2026-04-28 00:48 -26.46133 -53.45354 11483 ft 203 kts 156°
2026-04-28 00:48 -26.46960 -53.44871 11482 ft 203 kts 155°
2026-04-28 00:48 -26.48617 -53.43853 11488 ft 204 kts 154°
2026-04-28 00:49 -26.49437 -53.43336 11486 ft 204 kts 154°
2026-04-28 00:49 -26.50678 -53.42564 11481 ft 204 kts 155°
2026-04-28 00:49 -26.51926 -53.41807 11481 ft 204 kts 155°
2026-04-28 00:49 -26.53180 -53.41068 11481 ft 204 kts 156°
2026-04-28 00:50 -26.54438 -53.40343 11481 ft 204 kts 156°
2026-04-28 00:50 -26.55697 -53.39619 11483 ft 204 kts 156°
2026-04-28 00:50 -26.56956 -53.38893 11483 ft 203 kts 156°
2026-04-28 00:50 -26.58207 -53.38166 11483 ft 203 kts 156°
2026-04-28 00:51 -26.59425 -53.37450 11479 ft 203 kts 156°
2026-04-28 00:51 -26.60674 -53.36709 11485 ft 203 kts 156°
2026-04-28 00:51 -26.61920 -53.35967 11483 ft 202 kts 156°
2026-04-28 00:51 -26.63160 -53.35228 11485 ft 202 kts 156°
2026-04-28 00:52 -26.64401 -53.34490 11482 ft 203 kts 156°
2026-04-28 00:52 -26.65646 -53.33752 11483 ft 203 kts 156°
2026-04-28 00:52 -26.66897 -53.33015 11482 ft 203 kts 156°
2026-04-28 00:52 -26.68149 -53.32280 11481 ft 203 kts 156°
2026-04-28 00:53 -26.69397 -53.31532 11484 ft 204 kts 156°
2026-04-28 00:53 -26.70625 -53.30788 11485 ft 203 kts 156°
2026-04-28 00:53 -26.71877 -53.30047 11484 ft 204 kts 157°
2026-04-28 00:53 -26.73134 -53.29314 11482 ft 204 kts 157°
2026-04-28 00:54 -26.74391 -53.28582 11482 ft 204 kts 157°
2026-04-28 00:54 -26.75645 -53.27848 11484 ft 203 kts 157°
2026-04-28 00:54 -26.76901 -53.27112 11485 ft 204 kts 157°
2026-04-28 00:54 -26.78152 -53.26371 11486 ft 203 kts 156°
2026-04-28 00:55 -26.79401 -53.25627 11484 ft 203 kts 156°
2026-04-28 00:55 -26.80652 -53.24884 11479 ft 203 kts 156°
2026-04-28 00:55 -26.81896 -53.24141 11480 ft 202 kts 156°
2026-04-28 00:55 -26.83136 -53.23404 11486 ft 202 kts 156°
2026-04-28 00:56 -26.84381 -53.22671 11483 ft 202 kts 156°
2026-04-28 00:56 -26.85609 -53.21947 11488 ft 202 kts 156°
2026-04-28 00:56 -26.86856 -53.21210 11485 ft 203 kts 156°
2026-04-28 00:56 -26.88101 -53.20468 11486 ft 203 kts 156°
2026-04-28 00:57 -26.89343 -53.19725 11494 ft 203 kts 156°
2026-04-28 00:57 -26.90589 -53.18967 11489 ft 204 kts 156°
2026-04-28 00:57 -26.91838 -53.18216 11487 ft 204 kts 157°
2026-04-28 00:57 -26.93091 -53.17475 11491 ft 204 kts 158°
2026-04-28 00:58 -26.94361 -53.16769 11480 ft 204 kts 162°
2026-04-28 00:58 -26.95614 -53.16039 11473 ft 204 kts 149°
2026-04-28 00:58 -26.96607 -53.14912 11480 ft 205 kts 127°
2026-04-28 00:58 -26.97332 -53.13552 11483 ft 207 kts 122°
2026-04-28 00:59 -26.98029 -53.12131 11480 ft 209 kts 121°
2026-04-28 00:59 -26.98711 -53.10692 11483 ft 209 kts 120°
2026-04-28 00:59 -26.99378 -53.09241 11484 ft 210 kts 119°
2026-04-28 00:59 -27.00036 -53.07774 11487 ft 211 kts 118°
2026-04-28 01:00 -27.00684 -53.06295 11486 ft 212 kts 118°
2026-04-28 01:00 -27.01326 -53.04805 11488 ft 212 kts 117°
2026-04-28 01:00 -27.01960 -53.03306 11482 ft 213 kts 117°
2026-04-28 01:00 -27.02587 -53.01802 11493 ft 213 kts 116°
2026-04-28 01:01 -27.03210 -53.00293 11488 ft 213 kts 116°
2026-04-28 01:01 -27.03829 -52.98785 11492 ft 213 kts 116°
2026-04-28 01:01 -27.04432 -52.97295 11493 ft 213 kts 116°
2026-04-28 01:01 -27.05037 -52.95777 11493 ft 213 kts 115°
2026-04-28 01:02 -27.05638 -52.94258 11508 ft 214 kts 115°
2026-04-28 01:02 -27.06237 -52.92720 11498 ft 216 kts 115°
2026-04-28 01:02 -27.06835 -52.91174 11496 ft 216 kts 115°
2026-04-28 01:02 -27.07430 -52.89629 11501 ft 216 kts 115°
2026-04-28 01:03 -27.08029 -52.88081 11506 ft 216 kts 115°
2026-04-28 01:03 -27.08625 -52.86532 11502 ft 217 kts 115°
2026-04-28 01:03 -27.09221 -52.84981 11511 ft 216 kts 115°
2026-04-28 01:03 -27.09813 -52.83428 11508 ft 216 kts 115°
2026-04-28 01:04 -27.10392 -52.81898 11507 ft 216 kts 115°
2026-04-28 01:04 -27.10980 -52.80348 11514 ft 216 kts 115°